Weather History for Cape Race, NL

Change the Weather History Date:

Monday, November 12, 2012

  Actual Average Record
Temperature  
Mean Temperature 36 °F -  
Max Temperature 46 °F - - ()
Min Temperature 26 °F - - ()
Degree Days  
Heating Degree Days 29    
Moisture  
Dew Point 30 °F    
Average Humidity 73    
Maximum Humidity 89    
Minimum Humidity 34    
Precipitation  
Precipitation 0.00 in - - ()
Sea Level Pressure  
Sea Level Pressure 30.49 in    
Wind  
Wind Speed 10 mph ()    
Max Wind Speed 22 mph    
Max Gust Speed 28 mph    
T = Trace of Precipitation, MM = Missing Value Source: Averaged Metar Reports

Daily Weather History Graph

Daily Weather History Graph

Search for Another Location

Airport:

Trip Planner

Search our weather history database for the weather conditions in past years. The results will help you decide how hot, cold, wet, or windy it might be!

Date:

Astronomy

Nov. 12, 2012 Rise Set
Actual Time 7:00 AM NST 4:31 PM NST
Civil Twilight 6:28 AM NST 5:04 PM NST
Nautical Twilight 5:51 AM NST 5:40 PM NST
Astronomical Twilight 5:16 AM NST 6:16 PM NST
Moon 5:15 AM NST (11/12) 3:34 PM NST (11/12)
Length of Visible Light 10h 35m
Length of Day
9h 30m
Waning Crescent, 2% of the Moon is Illuminated
Nov 12
Waning Crescent
Nov 13
New
Nov 20
First Quarter
Nov 28
Full
Dec 6
Last Quarter

Hourly Weather History & Observations

Time (NST) Temp. Windchill Dew Point Humidity Pressure Visibility Wind Dir Wind Speed Gust Speed Precip Events Conditions
12:30 AM 30.4 °F 22.9 °F 25.5 °F 82% 30.38 in - WNW 8.1 mph - N/A   Unknown
1:30 AM 28.4 °F 23.3 °F 24.6 °F 86% 30.40 in - West 4.6 mph - N/A   Unknown
2:30 AM 28 °F - 23 °F 75% 30.43 in - WNW 9.2 mph - -  
2:30 AM 27.5 °F 18.6 °F 23.2 °F 84% 30.43 in - WNW 9.2 mph - N/A   Unknown
3:30 AM 29.3 °F 25.6 °F 25.9 °F 87% 30.44 in - SW 3.5 mph - N/A   Unknown
4:30 AM 28.8 °F 21.7 °F 23.9 °F 82% 30.45 in - WNW 6.9 mph - N/A   Unknown
5:30 AM 29 °F - 24 °F 75% 30.47 in - West 8.1 mph - -  
5:30 AM 28.6 °F 20.7 °F 24.1 °F 83% 30.47 in - West 8.1 mph - N/A   Unknown
6:30 AM 30.9 °F 27.5 °F 26.6 °F 84% 30.49 in - WSW 3.5 mph - N/A   Unknown
7:30 AM 28.4 °F 20.4 °F 24.8 °F 86% 30.51 in - West 8.1 mph - N/A   Unknown
8:30 AM 33 °F - 29 °F 78% 30.53 in - WNW 9.2 mph - -  
8:30 AM 32.9 °F 25.3 °F 28.8 °F 85% 30.53 in - WNW 9.2 mph - N/A   Unknown
9:30 AM 37.6 °F 30.5 °F 29.1 °F 72% 30.53 in - WNW 10.4 mph - N/A   Unknown
10:30 AM 41.4 °F 34.0 °F 29.1 °F 62% 30.51 in - WNW 13.8 mph - N/A   Unknown
11:30 AM 43 °F - 26 °F 38% 30.51 in - West 18.4 mph - -  
11:30 AM 42.6 °F 34.3 °F 25.7 °F 51% 30.51 in - West 18.4 mph - N/A   Unknown
12:30 PM 43.9 °F 36.5 °F 25.0 °F 47% 30.51 in - West 16.1 mph - N/A   Unknown
1:30 PM 44.6 °F 36.6 °F 21.2 °F 39% 30.50 in - West 19.6 mph - N/A   Unknown
2:30 PM 44 °F - 25 °F 34% 30.49 in - West 20.7 mph - -  
2:30 PM 43.5 °F 35.0 °F 25.0 °F 48% 30.49 in - West 20.7 mph - N/A   Unknown
3:30 PM 42.6 °F 33.5 °F 30.4 °F 62% 30.51 in - West 21.9 mph 27.6 mph N/A   Unknown
5:30 PM 38 °F - 33 °F 76% 30.53 in - WSW 10.4 mph - -  
5:30 PM 37.9 °F 30.9 °F 33.1 °F 83% 30.53 in - WSW 10.4 mph - N/A   Unknown
7:30 PM 43.3 °F 36.1 °F 37.4 °F 80% 30.51 in - WSW 15.0 mph - N/A   Unknown
8:30 PM 44 °F - 40 °F 81% 30.50 in - WSW 15.0 mph - -  
8:30 PM 44.2 °F 37.3 °F 40.1 °F 85% 30.50 in - WSW 15.0 mph - N/A   Unknown
9:30 PM 45.1 °F 38.8 °F 41.2 °F 86% 30.50 in - WSW 13.8 mph - N/A   Unknown
10:30 PM 45.3 °F 39.0 °F 41.9 °F 88% 30.50 in - SW 13.8 mph 20.7 mph N/A   Unknown
11:30 PM 46 °F - 43 °F 84% 30.47 in - SW 17.3 mph - -  
11:30 PM 45.9 °F 38.8 °F 42.8 °F 89% 30.47 in - SW 17.3 mph 23.0 mph N/A   Unknown